Location: Powder Track
(41.8531°N, 72.3584°W)
Time: 17:57:19
(UTC+00:00)

Vanguard 1 Rocket - Pass Details

Date: 09 August 2021
Orbit: 650 x 4226 km, 34.3° (Epoch: 20 September)

Event Time Altitude Azimuth Distance (km) Brightness Sun altitude
Rises 13:45:36 0° 249° (WSW) 8,468 12.0 41.8°
Reaches altitude 10° 13:51:43 10° 247° (WSW) 7,387 11.8 42.9°
Maximum altitude 14:15:50 65° 173° (S) 3,371 11.4 47.0°
Drops below altitude 10° 14:29:38 10° 95° (E) 4,552 11.8 49.3°
Sets 14:32:23 0° 92° (E) 5,198 11.8 49.7°
